Total_Precipitation_Accumulation
0.04 0.05 0.04 0.04 0.03 0.02 0.02 0.03 0.03 0.03 0.03 0.04 0.03 0.02 0.03 0.03 0.02 0.03 0.03 0.03 0.01 0.03 0.04 0.01 0.01 0.01 0.00 0.01 0.00 0.00 0.00 0.00 0.00 0.00 0.00 0.00 0.00 0.00 0.00 0.00 0.00 0.00 0.00 0.00 0.00 0.00 0.00 0.00 0.00 0.00 0.00 0.00 0.00 0.00 0.00 0.00 0.00 0.00 0.00 0.00 0.00 0.00 0.00 0.00 0.00 0.00 0.00 0.00 0.00 0.00 0.00 0.00 0.00 0.00 0.00 0.00 0.00 0.00 0.01 0.00 0.01 0.01 0.10 0.08 0.08 0.16 0.08 0.08
0.04 0.04 0.04 0.03 0.03 0.04 0.03 0.02 0.03 0.02 0.02 0.01 0.02 0.02 0.03 0.02 0.02 0.01 0.03 0.02 0.02 0.02 0.01 0.02 0.00 0.01 0.01 0.00 0.00 0.00 0.00 0.00 0.00 0.00 0.00 0.00 0.00 0.00 0.00 0.00 0.00 0.00 0.00 0.00 0.00 0.00 0.00 0.00 0.00 0.00 0.00 0.00 0.00 0.00 0.00 0.00 0.00 0.00 0.00 0.00 0.00 0.00 0.00 0.00 0.00 0.00 0.00 0.00 0.00 0.00 0.00 0.00 0.00 0.00 0.00 0.02 0.00 0.00 0.01 0.02 0.04 0.06 0.08 0.14 0.11 0.07 0.11 0.09
0.04 0.03 0.04 0.03 0.04 0.05 0.04 0.03 0.03 0.03 0.03 0.02 0.02 0.02 0.02 0.02 0.02 0.01 0.01 0.02 0.01 0.01 0.01 0.01 0.01 0.01 0.00 0.00 0.00 0.00 0.00 0.00 0.00 0.00 0.00 0.00 0.00 0.00 0.00 0.00 0.00 0.00 0.00 0.00 0.00 0.00 0.00 0.00 0.00 0.00 0.00 0.00 0.00 0.00 0.00 0.00 0.00 0.00 0.00 0.00 0.00 0.00 0.00 0.00 0.00 0.00 0.00 0.00 0.00 0.00 0.00 0.00 0.00 0.00 0.00 0.03 0.01 0.00 0.00 0.02 0.05 0.13 0.19 0.13 0.12 0.11 0.13 0.14
0.04 0.03 0.03 0.04 0.04 0.04 0.04 0.04 0.03 0.04 0.04 0.03 0.02 0.03 0.03 0.02 0.02 0.02 0.02 0.01 0.01 0.01 0.01 0.01 0.01 0.01 0.00 0.00 0.00 0.00 0.00 0.00 0.00 0.00 0.00 0.00 0.00 0.00 0.00 0.00 0.00 0.00 0.00 0.00 0.00 0.00 0.00 0.00 0.00 0.00 0.00 0.00 0.00 0.00 0.00 0.00 0.00 0.00 0.00 0.00 0.00 0.00 0.00 0.00 0.00 0.00 0.00 0.00 0.00 0.00 0.00 0.00 0.00 0.00 0.00 0.00 0.03 0.02 0.01 0.02 0.10 0.12 0.22 0.14 0.14 0.11 0.12 0.33
0.04 0.03 0.04 0.02 0.03 0.03 0.03 0.04 0.04 0.04 0.04 0.04 0.03 0.03 0.03 0.02 0.02 0.02 0.02 0.01 0.01 0.01 0.01 0.01 0.00 0.00 0.00 0.00 0.00 0.00 0.00 0.00 0.00 0.00 0.00 0.00 0.00 0.00 0.00 0.00 0.00 0.00 0.00 0.00 0.00 0.00 0.00 0.00 0.00 0.00 0.00 0.00 0.00 0.00 0.00 0.00 0.00 0.00 0.00 0.00 0.00 0.00 0.00 0.00 0.00 0.00 0.00 0.00 0.00 0.00 0.00 0.00 0.00 0.00 0.00 0.00 0.02 0.12 0.07 0.07 0.01 0.02 0.34 0.36 0.10 0.10 0.27 0.33
0.02 0.03 0.02 0.01 0.02 0.02 0.04 0.03 0.03 0.03 0.03 0.03 0.03 0.03 0.02 0.03 0.02 0.02 0.02 0.02 0.02 0.02 0.01 0.01 0.00 0.00 0.00 0.00 0.00 0.00 0.00 0.00 0.00 0.00 0.00 0.00 0.00 0.00 0.00 0.00 0.00 0.00 0.00 0.00 0.00 0.00 0.00 0.00 0.00 0.00 0.00 0.00 0.00 0.00 0.00 0.00 0.00 0.00 0.00 0.00 0.00 0.00 0.00 0.00 0.00 0.00 0.00 0.00 0.00 0.00 0.00 0.00 0.00 0.00 0.00 0.00 0.00 0.04 0.02 0.06 0.05 0.01 0.07 0.28 0.10 0.31 0.40 0.71
0.02 0.02 0.01 0.01 0.02 0.03 0.03 0.04 0.03 0.03 0.02 0.02 0.01 0.02 0.02 0.04 0.03 0.02 0.02 0.02 0.01 0.01 0.01 0.01 0.00 0.00 0.00 0.00 0.00 0.00 0.00 0.00 0.00 0.00 0.00 0.00 0.00 0.00 0.00 0.00 0.00 0.00 0.00 0.00 0.00 0.00 0.00 0.00 0.00 0.00 0.00 0.00 0.00 0.00 0.00 0.00 0.00 0.00 0.00 0.00 0.00 0.00 0.00 0.00 0.00 0.00 0.00 0.00 0.00 0.00 0.00 0.00 0.00 0.00 0.00 0.00 0.00 0.00 0.03 0.05 0.02 0.07 0.09 0.14 0.11 0.26 0.30 0.42
0.02 0.01 0.01 0.02 0.02 0.02 0.02 0.02 0.02 0.02 0.02 0.02 0.02 0.02 0.02 0.02 0.03 0.02 0.03 0.02 0.02 0.01 0.01 0.01 0.00 0.00 0.00 0.00 0.00 0.00 0.00 0.00 0.00 0.00 0.00 0.00 0.00 0.00 0.00 0.00 0.00 0.00 0.00 0.00 0.00 0.00 0.00 0.00 0.00 0.00 0.00 0.00 0.00 0.00 0.00 0.00 0.00 0.00 0.00 0.00 0.00 0.00 0.00 0.00 0.00 0.00 0.00 0.00 0.00 0.00 0.00 0.00 0.00 0.00 0.00 0.00 0.00 0.00 0.02 0.02 0.00 0.02 0.04 0.12 0.07 0.25 0.39 0.59
0.01 0.01 0.02 0.02 0.02 0.01 0.01 0.01 0.01 0.01 0.02 0.01 0.02 0.02 0.02 0.02 0.02 0.02 0.02 0.03 0.02 0.02 0.01 0.01 0.00 0.00 0.00 0.00 0.00 0.00 0.00 0.00 0.00 0.00 0.00 0.00 0.00 0.00 0.00 0.00 0.00 0.00 0.00 0.00 0.00 0.00 0.00 0.00 0.00 0.00 0.00 0.00 0.00 0.00 0.00 0.00 0.00 0.00 0.00 0.00 0.00 0.00 0.00 0.00 0.00 0.00 0.00 0.00 0.00 0.00 0.00 0.00 0.00 0.00 0.00 0.00 0.00 0.00 0.00 0.00 0.02 0.04 0.05 0.15 0.12 0.18 0.27 0.46
0.01 0.01 0.02 0.01 0.01 0.01 0.00 0.00 0.01 0.02 0.02 0.01 0.01 0.01 0.02 0.02 0.02 0.03 0.01 0.01 0.02 0.02 0.01 0.01 0.00 0.00 0.00 0.00 0.00 0.00 0.00 0.00 0.00 0.00 0.00 0.00 0.00 0.00 0.00 0.00 0.00 0.00 0.00 0.00 0.00 0.00 0.00 0.00 0.00 0.00 0.00 0.00 0.00 0.00 0.00 0.00 0.00 0.00 0.00 0.00 0.00 0.00 0.00 0.00 0.00 0.00 0.00 0.00 0.00 0.00 0.00 0.00 0.00 0.00 0.00 0.00 0.00 0.00 0.00 0.00 0.05 0.03 0.07 0.08 0.13 0.27 0.41 0.36
0.01 0.01 0.01 0.01 0.01 0.00 0.01 0.01 0.01 0.02 0.02 0.02 0.02 0.03 0.02 0.02 0.02 0.01 0.02 0.01 0.01 0.01 0.01 0.00 0.00 0.00 0.00 0.00 0.00 0.00 0.00 0.00 0.00 0.00 0.00 0.00 0.00 0.00 0.00 0.00 0.00 0.00 0.00 0.00 0.00 0.00 0.00 0.00 0.00 0.00 0.00 0.00 0.00 0.00 0.00 0.00 0.00 0.00 0.00 0.00 0.00 0.00 0.00 0.00 0.00 0.00 0.00 0.00 0.00 0.00 0.00 0.00 0.00 0.00 0.00 0.00 0.00 0.00 0.00 0.01 0.02 0.03 0.04 0.12 0.56 0.68 0.48 0.51
0.01 0.01 0.01 0.00 0.01 0.02 0.02 0.01 0.02 0.01 0.02 0.03 0.03 0.03 0.02 0.02 0.02 0.01 0.01 0.02 0.01 0.01 0.00 0.00 0.01 0.03 0.01 0.00 0.00 0.00 0.00 0.00 0.00 0.00 0.00 0.00 0.00 0.00 0.00 0.00 0.00 0.00 0.00 0.00 0.00 0.00 0.00 0.00 0.00 0.00 0.00 0.00 0.00 0.00 0.00 0.00 0.00 0.00 0.00 0.00 0.00 0.00 0.00 0.00 0.00 0.00 0.00 0.00 0.00 0.00 0.00 0.00 0.00 0.00 0.00 0.00 0.00 0.00 0.00 0.04 0.02 0.02 0.03 0.20 0.49 0.41 0.35 0.38
0.00 0.01 0.01 0.01 0.02 0.03 0.01 0.01 0.02 0.02 0.02 0.02 0.02 0.03 0.02 0.02 0.01 0.01 0.01 0.00 0.00 0.00 0.00 0.00 0.00 0.00 0.00 0.00 0.00 0.00 0.00 0.00 0.00 0.00 0.00 0.00 0.00 0.00 0.00 0.00 0.00 0.00 0.00 0.00 0.00 0.00 0.00 0.00 0.00 0.00 0.00 0.00 0.00 0.00 0.00 0.00 0.00 0.00 0.00 0.00 0.00 0.00 0.00 0.00 0.00 0.00 0.00 0.00 0.00 0.00 0.00 0.00 0.00 0.00 0.00 0.00 0.01 0.01 0.01 0.02 0.03 0.02 0.06 0.41 0.27 0.19 0.22 0.33
0.01 0.01 0.02 0.01 0.01 0.01 0.01 0.01 0.02 0.02 0.02 0.01 0.02 0.01 0.01 0.01 0.02 0.01 0.01 0.01 0.01 0.02 0.02 0.02 0.03 0.01 0.00 0.00 0.00 0.00 0.00 0.00 0.00 0.00 0.00 0.00 0.00 0.00 0.00 0.00 0.00 0.00 0.00 0.00 0.00 0.00 0.00 0.00 0.00 0.00 0.00 0.00 0.00 0.00 0.00 0.00 0.00 0.00 0.00 0.00 0.00 0.00 0.00 0.00 0.00 0.00 0.00 0.00 0.00 0.00 0.00 0.00 0.00 0.00 0.00 0.01 0.00 0.00 0.00 0.01 0.02 0.04 0.08 0.15 0.10 0.28 0.29 0.29
0.01 0.02 0.01 0.01 0.01 0.01 0.02 0.02 0.01 0.01 0.01 0.01 0.01 0.00 0.00 0.01 0.01 0.01 0.01 0.01 0.02 0.00 0.01 0.07 0.04 0.01 0.00 0.00 0.00 0.00 0.00 0.00 0.00 0.00 0.00 0.00 0.00 0.00 0.00 0.00 0.00 0.00 0.00 0.00 0.00 0.00 0.00 0.00 0.00 0.00 0.00 0.00 0.00 0.00 0.00 0.00 0.00 0.00 0.00 0.00 0.00 0.00 0.00 0.00 0.00 0.00 0.00 0.00 0.00 0.00 0.00 0.00 0.00 0.00 0.00 0.00 0.01 0.00 0.00 0.01 0.03 0.04 0.11 0.15 0.21 0.29 0.17 0.28
0.01 0.01 0.00 0.01 0.01 0.02 0.01 0.02 0.01 0.02 0.01 0.02 0.02 0.01 0.01 0.02 0.01 0.02 0.01 0.01 0.01 0.00 0.01 0.02 0.01 0.01 0.00 0.00 0.00 0.00 0.00 0.00 0.00 0.00 0.00 0.00 0.00 0.00 0.00 0.00 0.00 0.00 0.00 0.00 0.00 0.00 0.00 0.00 0.00 0.00 0.00 0.00 0.00 0.00 0.00 0.00 0.00 0.00 0.00 0.00 0.00 0.00 0.00 0.00 0.00 0.00 0.00 0.00 0.00 0.00 0.00 0.00 0.00 0.00 0.00 0.01 0.01 0.01 0.00 0.01 0.01 0.02 0.07 0.39 0.26 0.15 0.17 0.19
0.01 0.01 0.02 0.01 0.02 0.01 0.01 0.01 0.02 0.02 0.01 0.01 0.01 0.01 0.01 0.00 0.00 0.01 0.01 0.02 0.02 0.00 0.04 0.00 0.00 0.01 0.00 0.00 0.00 0.00 0.00 0.00 0.00 0.00 0.00 0.00 0.00 0.00 0.00 0.00 0.00 0.00 0.00 0.00 0.00 0.00 0.00 0.00 0.00 0.00 0.00 0.00 0.00 0.00 0.00 0.00 0.00 0.00 0.00 0.00 0.00 0.00 0.00 0.00 0.00 0.00 0.00 0.00 0.00 0.00 0.00 0.00 0.00 0.00 0.00 0.01 0.01 0.01 0.01 0.01 0.01 0.02 0.04 0.22 0.19 0.20 0.22 0.16
0.01 0.01 0.01 0.01 0.01 0.02 0.01 0.01 0.02 0.01 0.01 0.01 0.01 0.00 0.01 0.00 0.00 0.01 0.00 0.00 0.00 0.00 0.01 0.00 0.00 0.00 0.00 0.00 0.00 0.00 0.00 0.00 0.00 0.00 0.00 0.00 0.00 0.00 0.00 0.00 0.00 0.00 0.00 0.00 0.00 0.00 0.00 0.00 0.00 0.00 0.00 0.00 0.00 0.00 0.00 0.00 0.00 0.00 0.00 0.00 0.00 0.00 0.00 0.00 0.00 0.00 0.00 0.00 0.00 0.00 0.00 0.00 0.00 0.00 0.00 0.00 0.01 0.01 0.01 0.01 0.01 0.02 0.05 0.19 0.10 0.20 0.19 0.18
0.01 0.01 0.01 0.01 0.02 0.01 0.01 0.01 0.01 0.01 0.01 0.00 0.00 0.01 0.00 0.00 0.01 0.01 0.00 0.02 0.00 0.00 0.00 0.00 0.00 0.00 0.02 0.00 0.00 0.00 0.00 0.00 0.00 0.00 0.00 0.00 0.00 0.00 0.00 0.00 0.00 0.00 0.00 0.00 0.00 0.00 0.00 0.00 0.00 0.00 0.00 0.00 0.00 0.00 0.00 0.00 0.00 0.00 0.01 0.00 0.00 0.00 0.00 0.00 0.00 0.00 0.00 0.00 0.00 0.00 0.00 0.00 0.00 0.00 0.00 0.01 0.01 0.01 0.00 0.00 0.01 0.01 0.04 0.06 0.07 0.19 0.24 0.21
0.02 0.01 0.01 0.01 0.02 0.01 0.02 0.01 0.01 0.01 0.01 0.00 0.01 0.00 0.01 0.00 0.02 0.00 0.01 0.02 0.00 0.00 0.00 0.00 0.00 0.00 0.00 0.00 0.00 0.00 0.00 0.00 0.00 0.00 0.00 0.00 0.00 0.00 0.00 0.00 0.00 0.00 0.00 0.00 0.00 0.00 0.00 0.00 0.00 0.00 0.00 0.00 0.00 0.00 0.00 0.00 0.00 0.00 0.00 0.00 0.00 0.00 0.00 0.00 0.00 0.00 0.00 0.00 0.00 0.00 0.00 0.00 0.00 0.00 0.00 0.00 0.01 0.01 0.00 0.01 0.01 0.02 0.03 0.05 0.12 0.11 0.14 0.13
0.01 0.02 0.01 0.01 0.01 0.01 0.01 0.01 0.01 0.01 0.01 0.04 0.00 0.00 0.00 0.00 0.00 0.01 0.00 0.00 0.00 0.00 0.00 0.00 0.00 0.00 0.00 0.00 0.00 0.00 0.00 0.00 0.00 0.00 0.00 0.00 0.00 0.00 0.00 0.00 0.00 0.00 0.00 0.00 0.00 0.00 0.00 0.00 0.00 0.00 0.00 0.00 0.00 0.00 0.00 0.00 0.00 0.00 0.00 0.00 0.00 0.00 0.00 0.00 0.00 0.00 0.00 0.00 0.00 0.00 0.00 0.00 0.00 0.00 0.00 0.00 0.00 0.01 0.01 0.01 0.01 0.01 0.02 0.02 0.02 0.12 0.09 0.13
0.02 0.01 0.01 0.02 0.01 0.01 0.01 0.01 0.00 0.00 0.01 0.02 0.01 0.00 0.00 0.00 0.00 0.00 0.00 0.00 0.00 0.00 0.00 0.00 0.00 0.00 0.00 0.00 0.00 0.00 0.00 0.00 0.00 0.00 0.00 0.00 0.00 0.00 0.00 0.00 0.00 0.00 0.00 0.00 0.00 0.00 0.00 0.00 0.00 0.00 0.00 0.00 0.00 0.00 0.00 0.00 0.00 0.00 0.00 0.00 0.00 0.00 0.00 0.00 0.00 0.00 0.00 0.00 0.00 0.00 0.00 0.00 0.00 0.00 0.01 0.00 0.01 0.03 0.03 0.03 0.05 0.04 0.03 0.04 0.06 0.18 0.32 0.12
0.02 0.01 0.01 0.01 0.01 0.01 0.01 0.01 0.00 0.01 0.01 0.01 0.00 0.00 0.00 0.00 0.00 0.00 0.00 0.00 0.00 0.00 0.00 0.00 0.00 0.00 0.00 0.00 0.00 0.00 0.00 0.00 0.00 0.00 0.00 0.00 0.00 0.00 0.00 0.00 0.00 0.00 0.00 0.00 0.00 0.00 0.00 0.00 0.00 0.00 0.00 0.00 0.00 0.00 0.00 0.00 0.00 0.00 0.00 0.00 0.00 0.00 0.00 0.02 0.00 0.00 0.00 0.00 0.00 0.00 0.00 0.00 0.00 0.00 0.00 0.02 0.01 0.01 0.02 0.03 0.03 0.02 0.03 0.03 0.07 0.15 0.06 0.06
0.01 0.01 0.01 0.01 0.01 0.01 0.00 0.00 0.00 0.01 0.01 0.00 0.00 0.00 0.00 0.00 0.00 0.00 0.00 0.00 0.00 0.00 0.00 0.00 0.00 0.00 0.00 0.00 0.00 0.00 0.00 0.00 0.00 0.00 0.00 0.00 0.00 0.00 0.00 0.00 0.00 0.00 0.00 0.00 0.00 0.00 0.00 0.00 0.00 0.00 0.00 0.00 0.00 0.00 0.00 0.00 0.00 0.00 0.00 0.00 0.00 0.00 0.00 0.00 0.03 0.00 0.00 0.00 0.00 0.00 0.00 0.00 0.00 0.00 0.00 0.01 0.00 0.00 0.01 0.02 0.01 0.01 0.02 0.01 0.08 0.17 0.06 0.05
0.01 0.01 0.01 0.01 0.01 0.00 0.00 0.00 0.00 0.00 0.00 0.00 0.00 0.00 0.00 0.00 0.00 0.00 0.00 0.00 0.00 0.00 0.00 0.00 0.00 0.00 0.00 0.00 0.00 0.00 0.00 0.00 0.00 0.00 0.00 0.00 0.00 0.00 0.00 0.00 0.00 0.00 0.00 0.00 0.00 0.00 0.00 0.00 0.00 0.00 0.00 0.00 0.00 0.00 0.00 0.00 0.00 0.00 0.00 0.00 0.00 0.00 0.00 0.00 0.00 0.00 0.00 0.01 0.00 0.00 0.00 0.02 0.01 0.00 0.01 0.01 0.01 0.02 0.03 0.01 0.02 0.01 0.00 0.01 0.05 0.04 0.06 0.06
0.01 0.00 0.01 0.01 0.00 0.00 0.01 0.01 0.01 0.00 0.00 0.00 0.00 0.00 0.00 0.00 0.00 0.00 0.00 0.01 0.02 0.02 0.00 0.00 0.00 0.00 0.00 0.00 0.00 0.00 0.00 0.00 0.00 0.00 0.00 0.00 0.00 0.00 0.00 0.00 0.00 0.00 0.00 0.00 0.00 0.00 0.01 0.00 0.00 0.00 0.00 0.00 0.00 0.00 0.00 0.00 0.00 0.00 0.01 0.00 0.00 0.00 0.00 0.00 0.00 0.00 0.01 0.01 0.05 0.00 0.01 0.03 0.01 0.02 0.01 0.01 0.01 0.03 0.03 0.02 0.02 0.01 0.01 0.01 0.05 0.14 0.09 0.09
0.00 0.01 0.01 0.01 0.00 0.02 0.00 0.00 0.01 0.00 0.00 0.00 0.00 0.00 0.00 0.00 0.00 0.00 0.01 0.05 0.07 0.02 0.00 0.00 0.00 0.00 0.00 0.00 0.00 0.00 0.00 0.01 0.00 0.00 0.00 0.00 0.00 0.00 0.00 0.00 0.00 0.00 0.00 0.00 0.00 0.00 0.00 0.00 0.00 0.00 0.00 0.00 0.00 0.00 0.00 0.00 0.00 0.01 0.01 0.00 0.00 0.00 0.00 0.00 0.00 0.00 0.02 0.00 0.01 0.00 0.00 0.08 0.02 0.01 0.00 0.01 0.01 0.02 0.02 0.02 0.02 0.03 0.03 0.05 0.11 0.58 0.14 0.06
0.01 0.01 0.01 0.01 0.00 0.02 0.03 0.02 0.00 0.00 0.00 0.00 0.00 0.00 0.00 0.00 0.00 0.00 0.01 0.05 0.07 0.00 0.02 0.00 0.00 0.00 0.00 0.00 0.00 0.00 0.00 0.00 0.00 0.00 0.00 0.00 0.00 0.00 0.00 0.00 0.00 0.00 0.00 0.00 0.01 0.00 0.00 0.00 0.00 0.00 0.00 0.00 0.00 0.00 0.00 0.00 0.00 0.00 0.00 0.00 0.00 0.00 0.00 0.00 0.01 0.01 0.02 0.01 0.04 0.00 0.00 0.01 0.02 0.03 0.02 0.01 0.01 0.01 0.04 0.05 0.07 0.04 0.04 0.05 0.18 0.10 0.07 0.07
0.01 0.01 0.01 0.00 0.00 0.01 0.01 0.01 0.01 0.00 0.00 0.00 0.00 0.00 0.00 0.00 0.01 0.01 0.23 0.10 0.16 0.01 0.00 0.02 0.00 0.00 0.00 0.00 0.00 0.00 0.00 0.00 0.00 0.00 0.00 0.00 0.00 0.00 0.00 0.00 0.00 0.00 0.00 0.00 0.01 0.01 0.00 0.00 0.00 0.00 0.00 0.00 0.00 0.00 0.00 0.00 0.00 0.00 0.00 0.00 0.00 0.00 0.00 0.00 0.02 0.00 0.09 0.00 0.02 0.04 0.08 0.02 0.13 0.02 0.01 0.02 0.00 0.04 0.09 0.09 0.14 0.13 0.12 0.17 0.13 0.12 0.07 0.08
0.01 0.01 0.01 0.01 0.01 0.01 0.01 0.02 0.00 0.00 0.00 0.00 0.00 0.00 0.00 0.03 0.02 0.06 0.04 0.01 0.01 0.07 0.00 0.00 0.03 0.01 0.00 0.00 0.00 0.00 0.00 0.00 0.00 0.00 0.00 0.00 0.00 0.00 0.00 0.00 0.00 0.00 0.00 0.00 0.00 0.00 0.01 0.00 0.00 0.00 0.00 0.00 0.00 0.00 0.00 0.00 0.00 0.00 0.00 0.00 0.00 0.00 0.00 0.01 0.01 0.01 0.05 0.01 0.01 0.01 0.05 0.00 0.08 0.06 0.05 0.04 0.08 0.11 0.08 0.09 0.12 0.09 0.10 0.08 0.26 0.12 0.09 0.10
0.01 0.01 0.01 0.02 0.04 0.01 0.00 0.00 0.00 0.00 0.00 0.00 0.00 0.02 0.02 0.02 0.12 0.05 0.02 0.03 0.00 0.02 0.00 0.00 0.00 0.00 0.00 0.00 0.00 0.00 0.00 0.00 0.00 0.00 0.00 0.00 0.00 0.00 0.00 0.00 0.00 0.00 0.00 0.00 0.00 0.00 0.00 0.00 0.00 0.00 0.00 0.00 0.00 0.00 0.00 0.00 0.00 0.00 0.00 0.01 0.00 0.03 0.02 0.02 0.02 0.02 0.07 0.00 0.02 0.02 0.01 0.03 0.10 0.16 0.11 0.10 0.03 0.07 0.09 0.07 0.10 0.10 0.09 0.10 0.11 0.11 0.09 0.11
0.01 0.01 0.01 0.05 0.01 0.02 0.01 0.00 0.00 0.00 0.00 0.00 0.00 0.03 0.01 0.08 0.02 0.04 0.01 0.00 0.13 0.10 0.01 0.02 0.00 0.00 0.00 0.00 0.00 0.00 0.00 0.00 0.00 0.00 0.00 0.00 0.00 0.00 0.00 0.00 0.00 0.00 0.01 0.00 0.04 0.00 0.00 0.00 0.00 0.00 0.00 0.00 0.00 0.00 0.00 0.00 0.00 0.00 0.00 0.01 0.17 0.18 0.01 0.08 0.03 0.02 0.00 0.01 0.03 0.00 0.00 0.03 0.01 0.07 0.22 0.08 0.06 0.06 0.05 0.07 0.12 0.09 0.07 0.05 0.13 0.08 0.12 0.11
0.00 0.01 0.01 0.02 0.02 0.02 0.01 0.00 0.02 0.00 0.00 0.00 0.01 0.43 0.18 0.13 0.01 0.02 0.01 0.00 0.23 0.03 0.02 0.01 0.01 0.00 0.02 0.00 0.00 0.00 0.00 0.02 0.02 0.00 0.00 0.00 0.00 0.00 0.00 0.00 0.00 0.00 0.04 0.03 0.03 0.00 0.02 0.00 0.00 0.00 0.00 0.00 0.00 0.00 0.01 0.01 0.00 0.00 0.01 0.09 0.05 0.12 0.05 0.02 0.07 0.02 0.06 0.02 0.01 0.02 0.03 0.05 0.31 0.23 0.15 0.13 0.13 0.11 0.07 0.09 0.07 0.06 0.09 0.10 0.11 0.10 0.13 0.14
0.00 0.01 0.03 0.00 0.01 0.01 0.00 0.00 0.00 0.00 0.00 0.00 0.02 0.12 0.29 0.02 0.01 0.00 0.02 0.00 0.16 0.03 0.00 0.03 0.01 0.00 0.00 0.03 0.12 0.00 0.01 0.00 0.00 0.00 0.00 0.02 0.00 0.01 0.00 0.00 0.00 0.00 0.00 0.07 0.02 0.01 0.02 0.14 0.00 0.00 0.01 0.00 0.00 0.00 0.00 0.04 0.00 0.00 0.00 0.01 0.07 0.09 0.05 0.02 0.05 0.08 0.02 0.12 0.05 0.01 0.01 0.04 0.05 1.08 0.08 0.11 0.11 0.02 0.03 0.08 0.03 0.03 0.06 0.10 0.17 0.08 0.12 0.41
0.00 0.01 0.00 0.00 0.01 0.00 0.00 0.00 0.00 0.01 0.00 0.00 0.01 0.03 0.10 0.01 0.03 0.02 0.01 0.03 0.18 0.23 0.02 0.00 0.02 0.00 0.00 0.00 0.01 0.01 0.00 0.13 0.00 0.01 0.00 0.00 0.03 0.00 0.01 0.00 0.00 0.00 0.00 0.00 0.05 0.00 0.01 0.08 0.01 0.00 0.00 0.00 0.00 0.00 0.00 0.00 0.02 0.00 0.01 0.01 0.04 0.04 0.01 0.07 0.22 0.03 0.12 0.06 0.03 0.06 0.01 0.07 0.42 1.14 0.38 0.13 0.05 0.05 0.04 0.02 0.05 0.05 0.05 0.10 0.19 0.26 0.23 0.38
0.00 0.00 0.01 0.00 0.00 0.00 0.00 0.00 0.00 0.00 0.00 0.01 0.08 0.10 0.06 0.02 0.03 0.05 0.03 0.01 0.08 0.11 0.04 0.00 0.00 0.03 0.00 0.01 0.00 0.02 0.04 0.04 0.13 0.02 0.06 0.00 0.00 0.03 0.00 0.00 0.00 0.00 0.03 0.00 0.09 0.05 0.00 0.10 0.01 0.01 0.00 0.00 0.00 0.00 0.00 0.00 0.23 0.07 0.00 0.05 0.01 0.01 0.01 0.01 0.00 0.00 0.00 0.00 0.04 0.01 0.05 0.06 0.13 0.27 0.31 0.44 0.16 0.10 0.05 0.04 0.06 0.07 0.06 0.18 0.28 0.23 0.35 0.47
0.02 0.01 0.00 0.00 0.00 0.00 0.00 0.00 0.00 0.00 0.00 0.01 0.06 0.08 0.01 0.01 0.00 0.03 0.16 0.02 0.13 0.17 0.04 0.04 0.02 0.01 0.02 0.02 0.06 0.00 0.09 0.00 0.11 0.02 0.21 0.01 0.06 0.00 0.00 0.00 0.00 0.00 0.00 0.00 0.04 0.00 0.11 0.21 0.01 0.01 0.00 0.00 0.00 0.00 0.00 0.00 0.00 0.00 0.03 0.04 0.00 0.00 0.03 0.01 0.09 0.07 0.00 0.00 0.05 0.02 0.03 0.16 0.18 0.41 0.27 0.27 0.20 0.20 0.16 0.09 0.06 0.14 0.21 0.29 0.48 0.77 0.89 1.00
0.03 0.02 0.05 0.02 0.00 0.00 0.00 0.00 0.00 0.00 0.00 0.01 0.03 0.01 0.02 0.00 0.05 0.06 0.05 0.04 0.07 0.11 0.09 0.02 0.15 0.00 0.01 0.03 0.06 0.02 0.05 0.02 0.25 0.03 0.18 0.05 0.28 0.00 0.02 0.01 0.00 0.00 0.00 0.00 0.01 0.03 0.00 0.12 0.03 0.00 0.00 0.01 0.00 0.00 0.00 0.00 0.00 0.00 0.06 0.02 0.01 0.08 0.05 0.02 0.00 0.03 0.03 0.04 0.05 0.02 0.17 0.11 0.15 0.59 0.22 0.25 0.17 0.34 0.37 0.26 0.26 0.21 0.38 0.77 0.57 0.78 1.11 1.57
0.06 0.08 0.16 0.02 0.00 0.00 0.00 0.00 0.00 0.01 0.01 0.01 0.01 0.01 0.00 0.00 0.03 0.05 0.08 0.05 0.04 0.23 0.10 0.01 0.05 0.00 0.01 0.02 0.05 0.04 0.05 0.14 0.08 0.18 0.09 0.27 0.20 0.09 0.11 0.01 0.03 0.00 0.00 0.00 0.00 0.02 0.00 0.05 0.07 0.00 0.00 0.02 0.00 0.00 0.01 0.01 0.00 0.00 0.00 0.00 0.00 0.00 0.13 0.05 0.01 0.03 0.01 0.17 0.02 0.09 0.06 0.20 0.27 0.48 0.17 0.19 0.18 0.24 0.18 0.23 0.38 0.69 0.63 0.92 1.04 1.08 1.16 1.12
0.06 0.08 0.27 0.01 0.00 0.00 0.00 0.00 0.00 0.01 0.02 0.01 0.02 0.01 0.00 0.01 0.02 0.20 0.04 0.03 0.08 0.10 0.18 0.01 0.00 0.03 0.00 0.03 0.00 0.12 0.06 0.09 0.06 0.24 0.05 0.45 0.10 0.08 0.09 0.01 0.07 0.00 0.00 0.00 0.01 0.00 0.05 0.00 0.11 0.08 0.00 0.00 0.04 0.00 0.02 0.00 0.04 0.00 0.00 0.00 0.00 0.01 0.04 0.00 0.06 0.02 0.07 0.08 0.16 0.13 0.16 0.46 0.28 0.05 0.15 0.23 0.16 0.32 0.28 0.24 0.25 0.51 0.84 0.53 0.84 1.16 1.22 1.12
0.05 0.29 0.46 0.00 0.00 0.00 0.00 0.01 0.01 0.01 0.01 0.00 0.00 0.00 0.00 0.04 0.04 0.06 0.03 0.01 0.04 0.02 0.08 0.02 0.01 0.00 0.01 0.01 0.01 0.00 0.04 0.02 0.08 0.14 0.04 0.30 0.14 0.35 0.00 0.02 0.01 0.20 0.00 0.01 0.01 0.00 0.01 0.00 0.02 0.12 0.04 0.02 0.01 0.00 0.00 0.00 0.02 0.01 0.00 0.03 0.01 0.05 0.11 0.09 0.05 0.00 0.08 0.04 0.12 0.12 0.19 0.31 0.56 0.16 0.14 0.46 0.63 0.36 0.54 0.36 0.39 0.74 0.25 0.50 0.60 0.85 0.54 0.69
0.14 0.37 0.42 0.01 0.01 0.00 0.02 0.15 0.04 0.04 0.04 0.04 0.02 0.00 0.01 0.03 0.05 0.04 0.02 0.02 0.03 0.05 0.02 0.01 0.00 0.00 0.00 0.00 0.01 0.00 0.00 0.02 0.14 0.06 0.18 0.35 0.29 0.08 0.07 0.00 0.01 0.00 0.07 0.06 0.15 0.11 0.02 0.05 0.06 0.06 0.17 0.37 0.09 0.04 0.01 0.00 0.01 0.01 0.00 0.02 0.01 0.02 0.01 0.11 0.08 0.19 0.05 0.10 0.04 0.17 0.14 0.45 0.29 0.23 0.19 0.14 0.41 0.36 0.53 0.56 0.66 0.73 0.71 0.94 1.19 1.34 0.83 0.58
0.25 0.67 0.27 0.03 0.02 0.00 0.09 0.21 0.02 0.06 0.13 0.06 0.02 0.00 0.01 0.04 0.05 0.02 0.02 0.04 0.03 0.01 0.02 0.02 0.00 0.00 0.00 0.00 0.01 0.00 0.01 0.05 0.05 0.20 0.10 0.14 0.30 0.09 0.05 0.01 0.00 0.02 0.01 0.06 0.04 0.05 0.00 0.00 0.03 0.05 0.06 0.08 0.01 0.00 0.00 0.00 0.00 0.00 0.00 0.00 0.01 0.07 0.05 0.05 0.12 0.21 0.14 0.16 0.10 0.13 0.06 0.61 0.31 0.37 0.26 0.47 0.88 0.62 0.40 0.56 0.76 0.52 0.65 0.75 0.90 0.58 0.91 0.36
0.79 1.22 0.29 0.04 0.00 0.04 0.16 0.20 0.11 0.05 0.10 0.02 0.01 0.05 0.02 0.03 0.01 0.02 0.03 0.03 0.02 0.01 0.04 0.02 0.00 0.00 0.02 0.00 0.00 0.00 0.02 0.03 0.01 0.03 0.16 0.07 0.24 0.03 0.07 0.06 0.05 0.20 0.05 0.40 0.12 0.09 0.15 0.03 0.02 0.16 0.17 0.24 0.20 0.08 0.02 0.01 0.00 0.00 0.06 0.03 0.01 0.07 0.04 0.09 0.04 0.06 0.03 0.05 0.19 0.10 0.22 0.68 0.79 0.23 0.18 0.41 0.18 0.28 1.57 1.25 1.30 0.65 0.28 0.84 0.83 1.09 1.10 0.67
1.19 0.48 0.41 0.29 0.04 0.26 0.43 0.23 0.23 0.06 0.17 0.09 0.18 0.12 0.13 0.03 0.01 0.03 0.06 0.09 0.01 0.01 0.04 0.03 0.00 0.06 0.00 0.00 0.00 0.00 0.00 0.02 0.11 0.03 0.05 0.07 0.31 0.01 0.04 0.01 0.08 0.27 0.08 0.08 0.00 0.05 0.12 0.34 0.06 0.12 0.36 0.43 0.38 0.45 0.53 0.21 0.12 0.04 0.01 0.03 0.03 0.02 0.13 0.14 0.05 0.05 0.04 0.01 0.04 0.09 0.15 0.26 0.31 0.23 0.35 0.35 0.37 0.41 0.44 0.47 0.49 0.74 0.96 0.28 0.45 0.52 0.36 0.73
1.21 0.42 0.25 0.80 0.65 0.65 0.13 0.31 0.12 0.16 0.12 0.16 0.07 0.07 0.05 0.18 0.07 0.04 0.04 0.05 0.00 0.01 0.05 0.04 0.00 0.00 0.00 0.00 0.00 0.01 0.01 0.01 0.04 0.10 0.05 0.15 0.11 0.02 0.07 0.05 0.01 0.11 0.03 0.00 0.04 0.03 0.31 0.13 0.34 0.14 0.26 0.60 0.51 0.31 0.15 0.01 0.10 0.11 0.17 0.03 0.12 0.01 0.04 0.04 0.11 0.14 0.10 0.21 0.14 0.24 0.17 0.24 0.28 0.27 0.22 0.18 0.38 0.33 0.75 0.35 0.44 0.50 0.39 0.76 0.61 0.89 0.57 0.70
1.05 0.38 0.12 0.16 0.14 0.45 0.60 0.18 0.08 0.11 0.13 0.09 0.09 0.05 0.16 0.06 0.15 0.09 0.04 0.14 0.02 0.08 0.12 0.11 0.01 0.01 0.01 0.00 0.01 0.03 0.01 0.02 0.02 0.02 0.05 0.08 0.12 0.11 0.02 0.07 0.06 0.01 0.01 0.05 0.06 0.08 0.22 0.20 0.17 0.15 0.16 0.22 0.13 0.15 0.22 0.04 0.16 0.14 0.20 0.23 0.14 0.09 0.10 0.17 0.03 0.10 0.22 0.09 0.26 0.63 0.29 0.17 0.21 0.18 0.16 0.18 0.17 0.15 0.34 0.23 0.14 0.18 0.44 0.38 0.53 0.62 0.59 0.26
0.70 0.57 0.10 0.06 0.27 0.38 0.38 0.46 0.24 0.35 0.26 0.06 0.25 0.10 0.17 0.16 0.23 0.22 0.08 0.02 0.03 0.08 0.08 0.06 0.02 0.01 0.00 0.02 0.03 0.01 0.03 0.02 0.04 0.04 0.05 0.03 0.06 0.13 0.09 0.03 0.15 0.09 0.07 0.10 0.06 0.09 0.33 0.32 0.35 0.22 0.40 0.21 0.35 0.26 0.10 0.09 0.07 0.09 0.13 0.14 0.22 0.19 0.16 0.19 0.11 0.08 0.24 0.05 0.35 0.40 0.26 0.16 0.18 0.15 0.12 0.15 0.11 0.17 0.24 0.27 0.22 0.24 0.16 0.07 0.10 0.17 0.29 0.19
1.46 0.19 0.27 0.04 0.22 0.29 0.27 0.46 0.39 0.42 0.50 0.18 0.24 0.18 0.19 0.14 0.17 0.09 0.07 0.21 0.07 0.26 0.12 0.07 0.02 0.01 0.01 0.02 0.03 0.05 0.06 0.06 0.01 0.06 0.10 0.20 0.18 0.27 0.28 0.26 0.03 0.08 0.05 0.05 0.13 0.07 0.08 0.25 0.44 0.29 0.32 0.34 0.23 0.15 0.19 0.10 0.09 0.14 0.07 0.10 0.18 0.12 0.12 0.12 0.10 0.04 0.09 0.20 0.15 0.26 0.04 0.10 0.19 0.22 0.11 0.11 0.09 0.17 0.27 0.22 0.22 0.11 0.09 0.26 0.09 0.10 0.08 0.23
0.69 0.50 0.28 0.08 0.10 0.03 0.13 0.17 0.39 0.56 0.55 0.20 0.09 0.15 0.18 0.10 0.21 0.06 0.05 0.12 0.28 0.11 0.10 0.10 0.13 0.10 0.04 0.03 0.06 0.11 0.08 0.12 0.14 0.03 0.08 0.02 0.08 0.35 0.57 0.50 0.57 0.07 0.02 0.10 0.05 0.27 0.13 0.20 0.06 0.38 0.50 0.34 0.52 0.29 0.20 0.21 0.20 0.23 0.07 0.04 0.05 0.09 0.30 0.12 0.31 0.38 0.12 0.16 0.40 0.41 0.12 0.13 0.29 0.16 0.13 0.11 0.08 0.14 0.63 0.50 0.41 0.21 0.08 0.23 0.18 0.04 0.04 0.06
0.73 0.33 0.15 0.38 0.18 0.06 0.15 0.07 0.16 0.26 0.51 0.43 0.36 0.23 0.11 0.03 0.08 0.03 0.09 0.02 0.09 0.11 0.11 0.18 0.03 0.10 0.09 0.09 0.02 0.06 0.01 0.05 0.02 0.02 0.02 0.03 0.08 0.09 0.06 0.26 0.02 0.61 0.53 0.62 0.53 0.82 0.12 0.38 0.15 0.24 0.42 0.47 0.22 0.55 0.57 0.67 0.56 0.35 0.21 0.31 0.18 0.22 0.17 0.08 0.07 0.16 0.26 0.42 0.48 0.41 0.24 0.18 0.44 0.28 0.37 0.13 0.08 0.08 0.11 0.20 0.20 0.06 0.06 0.09 0.06 0.13 0.07 0.33
0.65 0.08 0.17 0.29 0.08 0.04 0.05 0.04 0.35 0.14 0.31 0.20 0.30 0.35 0.27 0.18 0.04 0.14 0.15 0.09 0.17 0.10 0.23 0.34 0.07 0.10 0.10 0.09 0.10 0.05 0.02 0.01 0.02 0.06 0.06 0.01 0.02 0.09 0.00 0.04 0.02 0.11 0.15 0.13 0.51 0.41 0.41 0.30 0.28 0.56 0.35 0.59 0.48 0.50 0.36 0.36 0.39 0.44 0.37 0.36 0.24 0.27 0.09 0.23 0.14 0.14 0.24 0.42 0.42 0.55 0.40 0.28 0.23 0.15 0.09 0.19 0.07 0.11 0.20 0.07 0.10 0.09 0.07 0.06 0.07 0.07 0.09 0.08